Location: Newark
(52.4787°S, 179.0532°W)
Time: 03:55:38
(UTC+00:00)

Transit 2A Rocket - Pass Details

Date: 21 November 2019
Orbit: 594 x 909 km, 66.7° (Epoch: 11 December)

Event Time Altitude Azimuth Distance (km) Brightness Sun altitude
Rises 05:37:06 0° 221° (SW) 3,574 9.3 16.3°
Reaches altitude 10° 05:39:40 10° 223° (SW) 2,626 8.8 16.0°
Maximum altitude 05:45:45 65° 302° (WNW) 992 6.2 15.1°
Drops below altitude 10° 05:51:33 10° 22° (NNE) 2,499 7.4 14.2°
Sets 05:53:57 0° 25° (NNE) 3,390 8.0 13.9°
